Location: Dumpton Point
(51.3500°N, 1.4433°E)
Time: 16:29:31
(UTC+00:00)

Vanguard 1 Rocket - Visible Passes

Search period start: 07 October 2022 00:00
Search period end: 17 October 2022 00:00
Orbit: 650 x 4225 km, 34.3° (Epoch: 06 October)

Date Brightness Start Highest point End Pass type
(mag) Time Alt. Az. Time Alt. Az. Time Alt. Az.
07 Oct 10.1 18:43:30 10° SW 19:03:17 38° S 19:12:05 21° ESE visible
07 Oct 9.9 21:14:06 10° WSW 21:29:21 36° SSW 21:29:21 36° SSW visible
08 Oct 10.6 17:29:54 10° SW 17:50:17 35° SSE 18:04:03 10° ESE visible
08 Oct 9.8 19:59:03 10° WSW 20:17:54 41° S 20:21:54 35° SSE visible
08 Oct 10.4 22:31:04 10° W 22:39:10 23° SW 22:39:10 23° SW visible
09 Oct 10.1 18:44:22 10° SW 19:05:14 41° S 19:14:27 22° ESE visible
09 Oct 10.0 21:15:39 10° WSW 21:31:43 36° SSW 21:31:43 36° SSW visible
10 Oct 10.6 17:30:25 10° SW 17:52:05 39° SSE 18:06:44 10° ESE visible
10 Oct 9.9 20:00:22 10° WSW 20:19:53 42° S 20:24:15 35° SSE visible
10 Oct 10.5 22:33:00 10° W 22:41:30 23° WSW 22:41:30 23° WSW visible
11 Oct 10.2 18:45:27 10° WSW 19:07:08 44° S 19:16:46 23° SE visible
11 Oct 10.1 21:17:16 10° W 21:33:52 35° SSW 21:34:02 35° SSW visible
12 Oct 10.6 17:31:14 10° SW 17:53:51 43° SSE 18:09:17 10° ESE visible
12 Oct 9.9 20:01:46 10° WSW 20:21:47 42° SSW 20:26:33 35° SSE visible
12 Oct 10.6 22:35:05 10° W 22:43:48 21° WSW 22:43:48 21° WSW visible
13 Oct 10.2 18:46:41 10° WSW 19:08:59 45° S 19:19:05 23° SE visible
13 Oct 10.2 21:18:58 10° W 21:35:38 33° SSW 21:36:20 33° SSW visible
14 Oct 10.7 17:32:17 10° SW 17:55:35 46° S 18:11:36 10° ESE visible
14 Oct 10.1 20:03:17 10° WSW 20:23:35 41° SSW 20:28:52 34° SSE visible
14 Oct 10.8 22:37:23 10° W 22:46:07 19° WSW 22:46:07 19° WSW visible
15 Oct 10.3 18:48:04 10° WSW 19:10:46 46° S 19:21:24 23° SE visible
15 Oct 10.3 21:20:46 10° W 21:37:15 30° SW 21:38:39 30° SSW visible
16 Oct 10.7 17:33:32 10° WSW 17:57:17 48° S 18:13:57 10° ESE visible
16 Oct 10.2 20:04:53 10° W 20:25:16 39° SSW 20:31:12 31° S visible
16 Oct 10.9 22:40:02 10° W 22:48:28 17° WSW 22:48:28 17° WSW visible
